Ohio State University, OH

3:43 PM EDT on May 23, 2018 (GMT -0400)
Ohio State University

Weather History for KOSU - February, 2013

Change the Weather History Date:

Sunday, February 3, 2013

  Actual Average Record
Temperature  
Mean Temperature 20 °F -  
Max Temperature 24 °F 36 °F 60 °F (2016)
Min Temperature 16 °F 22 °F 6 °F (2007)
Degree Days  
Heating Degree Days 45    
Moisture  
Dew Point 16 °F    
Average Humidity 83    
Maximum Humidity 93    
Minimum Humidity 68    
Precipitation  
Precipitation 0.00 in - - ()
Sea Level Pressure  
Sea Level Pressure 29.97 in    
Wind  
Wind Speed 6 mph (WNW)    
Max Wind Speed 18 mph    
Max Gust Speed 25 mph    
Visibility 6 miles    
Events Snow    
Averages and records for this station are not official NWS values.
T = Trace of Precipitation, MM = Missing Value Source: NWS Daily Summary

Daily Weather History Graph

Daily Weather History Graph

Search for Another Location

Airport or City:

Astronomy

Feb. 03, 2013 Rise Set
Actual Time 7:38 AM EST 5:54 PM EST
Civil Twilight 7:10 AM EST 6:22 PM EST
Nautical Twilight 6:37 AM EST 6:54 PM EST
Astronomical Twilight 6:06 AM EST 7:26 PM EST
Moon 1:05 AM EST (2/3) 11:30 AM EST (2/3)
Length of Visible Light 11h 12m
Length of Day
10h 15m
Waning Gibbous, 49% of the Moon is Illuminated
Feb 3
Waning Gibbous
Feb 10
New
Feb 17
First Quarter
Feb 25
Full
Mar 4
Last Quarter

Hourly Weather History & Observations

Time (EST) Temp. Windchill Dew Point Humidity Pressure Visibility Wind Dir Wind Speed Gust Speed Precip Events Conditions
12:53 AM 24.1 °F 16.0 °F 21.0 °F 88% 30.00 in 7.0 mi West 6.9 mph - 0.00 in   Overcast
1:53 AM 24.1 °F 18.2 °F 21.0 °F 88% 29.98 in 7.0 mi West 4.6 mph - N/A   Overcast
2:53 AM 24.1 °F 16.0 °F 19.9 °F 84% 29.97 in 7.0 mi West 6.9 mph - N/A   Overcast
3:28 AM 23.0 °F 15.8 °F 19.4 °F 86% 29.92 in 6.0 mi NNW 5.8 mph - N/A   Overcast
3:53 AM 21.9 °F 15.7 °F 19.0 °F 89% 29.95 in 5.0 mi North 4.6 mph - 0.00 in Snow Light Snow
4:11 AM 21.2 °F 13.6 °F 17.6 °F 86% 29.91 in 4.0 mi NNW 5.8 mph - 0.00 in Snow Light Snow
4:20 AM 21.2 °F 13.6 °F 19.4 °F 93% 29.91 in 3.0 mi North 5.8 mph - 0.00 in Snow Light Snow
4:50 AM 19.4 °F 14.3 °F 17.6 °F 93% 29.90 in 2.5 mi North 3.5 mph - 0.00 in Snow Light Snow
4:53 AM 19.9 °F - 17.1 °F 89% 29.94 in 2.5 mi Calm Calm - 0.00 in Snow Light Snow
5:02 AM 19.4 °F - 17.6 °F 93% 29.90 in 4.0 mi Calm Calm - 0.00 in Snow Light Snow
5:53 AM 19.9 °F - 17.1 °F 89% 29.93 in 6.0 mi Calm Calm - 0.00 in Snow Light Snow
6:51 AM 19.4 °F 14.3 °F 15.8 °F 86% 29.88 in 8.0 mi North 3.5 mph - 0.00 in   Overcast
6:53 AM 19.9 °F 14.9 °F 16.0 °F 85% 29.92 in 9.0 mi North 3.5 mph - 0.00 in   Overcast
7:53 AM 19.9 °F - 16.0 °F 85% 29.93 in 10.0 mi Calm Calm - N/A   Overcast
8:53 AM 19.9 °F 14.9 °F 16.0 °F 85% 29.94 in 2.5 mi NNW 3.5 mph - 0.00 in Snow Light Snow
9:16 AM 19.4 °F - 17.6 °F 93% 29.89 in 1.2 mi Calm Calm - 0.00 in Snow Light Snow
9:53 AM 19.9 °F 14.9 °F 17.1 °F 89% 29.93 in 1.5 mi WNW 3.5 mph - 0.00 in Snow Light Snow
10:02 AM 19.4 °F - 17.6 °F 93% 29.90 in 1.5 mi Calm Calm - 0.00 in Snow Light Snow
10:11 AM 19.4 °F 12.8 °F 17.6 °F 93% 29.90 in 1.5 mi West 4.6 mph - 0.00 in Snow Light Snow
10:16 AM 19.4 °F 11.5 °F 17.6 °F 93% 29.90 in 2.5 mi WNW 5.8 mph - 0.00 in Snow Light Snow
10:53 AM 21.0 °F 11.4 °F 17.1 °F 85% 29.95 in 2.0 mi WNW 8.1 mph - 0.00 in Snow Light Snow
11:12 AM 21.2 °F 12.6 °F 17.6 °F 86% 29.91 in 2.0 mi West 6.9 mph - 0.00 in Snow Light Snow
11:23 AM 21.2 °F 13.6 °F 17.6 °F 86% 29.91 in 2.0 mi West 5.8 mph - 0.00 in Snow Light Snow
11:53 AM 21.0 °F 8.6 °F 16.0 °F 81% 29.94 in 3.0 mi West 12.7 mph - 0.00 in Snow Light Snow
12:53 PM 19.9 °F 5.7 °F 12.9 °F 74% 29.95 in 6.0 mi West 16.1 mph - 0.00 in   Haze
1:50 PM 19.4 °F 6.0 °F 12.2 °F 74% 29.91 in 6.0 mi West 13.8 mph - N/A   Haze
1:53 PM 19.9 °F 6.2 °F 12.9 °F 74% 29.95 in 7.0 mi West 15.0 mph - N/A   Overcast
2:53 PM 19.9 °F 6.7 °F 12.0 °F 71% 29.97 in 10.0 mi West 13.8 mph - N/A   Overcast
3:04 PM 19.4 °F 5.0 °F 12.2 °F 74% 29.92 in 10.0 mi West 16.1 mph - N/A   Overcast
3:53 PM 19.0 °F 5.0 °F 10.0 °F 68% 30.00 in 10.0 mi West 15.0 mph - N/A   Overcast
4:16 PM 19.4 °F 4.1 °F 10.4 °F 68% 29.97 in 10.0 mi West 18.4 mph 25.3 mph N/A   Overcast
4:39 PM 19.4 °F 5.5 °F 10.4 °F 68% 29.98 in 10.0 mi West 15.0 mph 24.2 mph N/A   Overcast
4:53 PM 19.0 °F 6.8 °F 12.0 °F 74% 30.02 in 10.0 mi West 11.5 mph 21.9 mph N/A   Overcast
5:53 PM 19.0 °F 7.5 °F 12.9 °F 77% 30.04 in 10.0 mi West 10.4 mph - N/A   Overcast
6:53 PM 19.9 °F 8.6 °F 14.0 °F 78% 30.06 in 10.0 mi WSW 10.4 mph - 0.00 in   Overcast
7:53 PM 19.9 °F 9.3 °F 14.0 °F 78% 30.09 in 10.0 mi West 9.2 mph - N/A   Overcast
8:34 PM 19.4 °F 10.4 °F 14.0 °F 80% 30.05 in 10.0 mi WSW 6.9 mph - N/A   Overcast
8:53 PM 18.0 °F 8.7 °F 14.0 °F 84% 30.09 in 10.0 mi West 6.9 mph - N/A   Mostly Cloudy
9:11 PM 17.6 °F 9.3 °F 14.0 °F 86% 30.05 in 9.0 mi WSW 5.8 mph - 0.00 in   Overcast
9:53 PM 18.0 °F 7.7 °F 14.0 °F 84% 30.11 in 10.0 mi West 8.1 mph - 0.00 in   Scattered Clouds
10:53 PM 16.0 °F 5.3 °F 10.9 °F 81% 30.11 in 10.0 mi West 8.1 mph - N/A   Clear
11:53 PM 16.0 °F 8.8 °F 12.0 °F 84% 30.12 in 10.0 mi WSW 4.6 mph - N/A   Mostly Cloudy